Location: Newark
(13.5236°S, 71.9791°W)
Time: 06:54:56
(UTC+00:00)

OTV 5 (USA 277) - Pass Details

Date: 24 July 2019
Orbit: 305 x 329 km, 54.5° (Epoch: 20 August)

Event Time Altitude Azimuth Distance (km) Brightness Sun altitude
Rises 23:52:32 0° 289° (WNW) 2,073 ? -18.0°
Reaches altitude 10° 23:55:42 10° 248° (WSW) 1,251 ? -18.7°
Maximum altitude 23:56:29 11° 232° (SW) 1,208 ? -18.9°
Drops below altitude 10° 23:57:16 10° 216° (SW) 1,256 ? -19.1°
Enters shadow 23:58:09 - 200° (SSW) 1,407 ? -19.3°
